CW0198 Weather Reports


time (UTC)temp
F
wind
direction
speed
knots
gust
knots
rain 1hr
in
rain 24hr
in
rain mn
in
humidity
%
barometer
mb
20260508044559 53 290 0.0 0.0 0.00 1.20 0.00 97 1013.0
20260508043032 53 290 0.0 0.0 0.00 1.20 0.00 97 1013.0
20260508041551 53 288 0.0 0.0 0.00 1.20 0.00 97 1013.0
20260508040017 53 288 0.0 0.0 0.00 1.20 1.20 97 1012.8
20260508034536 53 316 0.0 0.0 0.00 1.20 1.20 97 1012.6
20260508033056 53 302 0.0 2.6 0.00 1.20 1.20 97 1012.2
20260508031517 53 37 0.0 0.0 0.00 1.20 1.20 97 1012.0
20260508030045 53 14 0.0 0.0 0.00 1.20 1.20 96 1011.8
20260508024519 53 12 0.0 0.0 0.00 1.20 1.20 96 1011.9
20260508023036 53 22 0.0 0.0 0.00 1.20 1.20 96 1011.7
20260508021506 53 331 0.0 1.7 0.00 1.20 1.20 96 1011.5
20260508020036 53 301 0.0 0.0 0.00 1.20 1.20 96 1011.5
20260508014620 53 300 0.0 0.9 0.02 1.20 1.20 96 1011.4
20260508014502 53 300 0.0 0.9 0.02 1.20 1.20 96 1011.2
20260508013031 53 328 0.0 0.0 0.14 1.20 1.20 96 1010.5
20260508011504 53 319 0.0 1.7 0.15 1.20 1.20 96 1010.9
20260508010041 53 41 0.0 2.6 0.15 1.20 1.20 96 1010.7
20260508004558 53 98 0.0 4.3 0.13 1.18 1.18 95 1010.7
20260508003011 54 52 0.9 2.6 0.01 1.06 1.06 93 1010.6
20260508001545 54 150 0.0 3.5 0.00 1.05 1.05 93 1009.3
20260508000013 54 281 0.0 0.9 0.00 1.05 1.05 94 1009.3
20260507234535 54 293 0.9 6.1 0.00 1.05 1.05 93 1009.3
20260507233002 54 32 1.7 6.1 0.00 1.05 1.05 93 1009.6
20260507231523 54 328 1.7 6.1 0.00 1.05 1.05 93 1009.3
20260507230049 54 159 2.6 7.8 0.00 1.05 1.05 93 1009.0
20260507224514 54 343 1.7 5.2 0.00 1.05 1.05 94 1008.9
20260507223038 54 354 0.0 3.5 0.00 1.05 1.05 95 1008.8
20260507221502 54 23 0.9 3.5 0.00 1.05 1.05 95 1008.7
20260507220021 53 289 1.7 12.2 0.00 1.05 1.05 95 1008.8
20260507214548 54 346 4.3 8.7 0.01 1.05 1.05 95 1008.5
20260507213007 55 38 4.3 10.4 0.03 1.05 1.05 96 1008.4
20260507211538 55 49 1.7 12.2 0.12 1.05 1.05 96 1008.1
20260507210100 56 328 5.2 10.4 0.19 1.05 1.05 96 1007.9
20260507204524 56 353 1.7 8.7 0.23 1.04 1.04 96 1007.8
20260507203039 56 24 2.6 7.8 0.20 1.01 1.02 96 1007.6
20260507201602 57 347 2.6 7.8 0.14 0.95 0.95 96 1007.3
20260507200009 58 328 4.3 8.7 0.04 0.85 0.85 95 1007.4
20260507194538 59 29 2.6 9.6 0.00 0.81 0.81 95 1007.6
20260507193005 60 345 4.3 10.4 0.00 0.81 0.81 95 1007.1
20260507191529 61 335 4.3 10.4 0.00 0.81 0.81 95 1007.2
20260507190042 62 345 1.7 9.6 0.01 0.81 0.81 95 1006.6
20260507184558 63 342 2.6 7.0 0.01 0.81 0.81 93 1007.2
20260507183012 66 1 4.3 11.3 0.01 0.81 0.81 90 1006.8
20260507181540 72 240 0.9 4.3 0.00 0.80 0.81 93 1006.5
20260507180100 70 275 1.7 4.3 0.00 0.80 0.80 94 1006.9
20260507174526 70 264 1.7 6.1 0.00 0.80 0.80 92 1006.6
20260507173046 71 289 1.7 5.2 0.00 0.80 0.80 94 1006.4
20260507171502 69 212 1.7 5.2 0.00 0.80 0.80 95 1006.6
20260507170026 69 196 0.0 5.2 0.00 0.80 0.80 95 1007.3
20260507164547 69 236 0.9 3.5 0.00 0.80 0.80 95 1008.0
20260507163008 69 295 1.7 4.3 0.01 0.80 0.80 95 1008.2
20260507161540 69 224 1.7 5.2 0.05 0.80 0.80 95 1008.3
20260507160027 68 229 0.9 5.2 0.08 0.80 0.80 94 1008.1
20260507154532 68 207 0.9 5.2 0.14 0.80 0.80 95 1008.0
20260507153103 67 266 1.7 4.3 0.17 0.79 0.79 96 1008.1
20260507151512 67 257 2.6 7.8 0.16 0.75 0.75 96 1008.4
20260507150048 67 204 1.7 7.8 0.16 0.72 0.72 96 1008.6
20260507144509 68 236 0.9 8.7 0.13 0.65 0.66 96 1008.8
20260507143034 68 215 2.6 8.7 0.09 0.61 0.62 96 1008.8
20260507141555 68 271 1.7 7.0 0.07 0.59 0.59 96 1008.8
20260507141512 68 326 1.7 7.0 0.07 0.59 0.59 96 1008.9
20260507140021 68 295 0.9 5.2 0.04 0.56 0.56 96 1008.9
20260507134548 68 213 0.9 5.2 0.00 0.52 0.52 96 1009.0
20260507133113 68 291 0.9 5.2 0.00 0.52 0.52 96 1008.7
20260507133002 68 268 1.7 5.2 0.00 0.52 0.52 96 1008.7
20260507131519 68 271 0.9 6.1 0.00 0.52 0.52 96 1008.7
20260507130049 68 199 0.9 7.0 0.00 0.52 0.52 96 1008.4
20260507124635 67 250 3.5 6.1 0.00 0.52 0.52 97 1008.7
20260507123018 67 212 0.9 7.0 0.00 0.52 0.52 97 1009.1
20260507121541 67 210 0.9 5.2 0.00 0.52 0.52 97 1009.3
20260507120059 67 214 0.9 3.5 0.00 0.52 0.52 97 1009.3
20260507114529 66 224 0.0 4.3 0.02 0.52 0.52 97 1009.7
20260507113047 66 246 0.0 2.6 0.03 0.52 0.52 97 1009.7
20260507111515 66 255 1.7 3.5 0.03 0.52 0.52 97 1009.8
20260507110037 66 186 0.9 4.3 0.04 0.52 0.52 97 1009.5
20260507104558 66 214 1.7 3.5 0.03 0.50 0.50 97 1009.3
20260507103023 66 224 1.7 4.3 0.02 0.49 0.49 97 1009.3
20260507101541 66 212 0.9 2.6 0.03 0.49 0.49 97 1009.6
20260507100009 66 212 0.0 3.5 0.02 0.48 0.48 97 1009.2
20260507094523 66 230 2.6 7.0 0.07 0.47 0.47 97 1009.1
20260507093057 66 214 2.6 5.2 0.12 0.47 0.47 97 1008.9
20260507091518 66 214 2.6 7.0 0.13 0.46 0.46 97 1009.0
20260507090044 66 167 3.5 12.2 0.14 0.46 0.46 98 1009.2
20260507084559 66 205 2.6 7.8 0.10 0.40 0.41 98 1009.8
20260507083027 65 207 0.9 4.3 0.06 0.35 0.35 98 1010.1
20260507081553 65 247 1.7 6.1 0.04 0.33 0.33 98 1009.8
20260507080027 65 223 0.0 0.0 0.03 0.32 0.32 98 1010.1
20260507074601 65 241 0.0 0.0 0.01 0.30 0.30 98 1010.1
20260507073021 65 151 0.0 2.6 0.00 0.28 0.28 97 1010.0
20260507071553 65 206 0.0 0.0 0.00 0.28 0.28 97 1010.3
20260507070015 65 167 0.0 0.0 0.00 0.28 0.28 97 1010.4
20260507064547 66 124 0.0 0.0 0.00 0.28 0.28 97 1010.4
20260507063011 66 139 0.0 0.9 0.01 0.28 0.28 97 1010.9
20260507061534 66 287 0.0 2.6 0.11 0.28 0.28 97 1011.4
20260507060048 66 158 0.0 0.0 0.21 0.28 0.28 96 1010.7
20260507054514 66 197 0.0 2.6 0.28 0.28 0.28 96 1010.9
20260507053025 66 191 0.0 2.6 0.28 0.28 0.28 95 1010.3
20260507051547 67 297 0.0 2.6 0.18 0.18 0.19 94 1012.4
20260507050007 68 315 2.6 6.1 0.07 0.07 0.08 91 1012.5